Regional Weather Roundup
Issued by NWS

Home | Current Version | Previous Version | Graphics & Text | Print | Product List | Glossary Off
Versions: 1 2 3 4 5 6 7 8 9 10 11 12 13 14 15 16 17 18 19 20 21 22 23 24 25 26 27 28 29 30 31 32 33 34 35 36 37 38 39 40 41 42 43 44 45 46 47 48 49 50

000
ASUS43 KLSX 282007
RWRMO

WEATHER SUMMARY FOR MISSOURI
NATIONAL WEATHER SERVICE SPRINGFIELD MO
200 PM CST FRI NOV 28 2014

NOTE: "FAIR" INDICATES FEW OR NO CLOUDS BELOW 12,000 FEET WITH NO
       SIGNIFICANT WEATHER AND/OR OBSTRUCTIONS TO VISIBILITY.
       CURRENT SKY AND/OR WEATHER CONDITIONS ARE NOT AVAILABLE FOR
       CHILLICOTHE AND FARMINGTON.

MOZ001>031-035>038-043-044-053-054-282100-
...NORTHERN AND WESTERN MISSOURI...

CITY           SKY/WX    TMP DP  RH WIND       PRES   REMARKS
KANSAS CTY INT PTSUNNY   55  32  41 S14       29.82F
KANSAS C DTWN  SUNNY     59  31  34 SW12      29.83F
LEE`S SUMMIT   SUNNY     58  32  37 S13G21    29.84F
ST JOSEPH      MOSUNNY   54  32  43 S15       29.80F
CHILLICOTHE      N/A     53  34  48 S10       29.84F
KIRKSVILLE     MOSUNNY   49  33  54 SW9       29.87F

$$
MOZ066>068-077>081-088>096-101>105-282100-
...SOUTHWEST MISSOURI...

CITY           SKY/WX    TMP DP  RH WIND       PRES   REMARKS
SPRINGFIELD    SUNNY     62  33  33 SW24G30   29.94F
JOPLIN         SUNNY     62  34  35 SW22G30   29.92F

$$
MOZ032>034-039>042-045>050-055>058-069>072-282100-
...CENTRAL MISSOURI...

CITY           SKY/WX    TMP DP  RH WIND       PRES   REMARKS
COLUMBIA       MOSUNNY   59  34  39 S12       29.89F
JEFFERSON CITY SUNNY     58  32  37 S13G18    29.91F
ROLLA          SUNNY     54  33  45 S20G28    29.93F
SEDALIA        MOSUNNY   60  33  36 SW20G29   29.88F
WHITEMAN AFB   MOSUNNY   60  34  38 SW20      29.85F
WARRENSBURG    MOSUNNY   59  32  36 S15G22    29.85F
OSAGE BEACH    SUNNY     61  34  36 SW16G22   29.92F

$$
MOZ051-052-059>065-282100-
...EAST CENTRAL MISSOURI...

CITY           SKY/WX    TMP DP  RH WIND       PRES   REMARKS
ST LOUIS INTL  MOSUNNY   51  32  48 S14G20    29.99F
SPIRIT OF STL  MOSUNNY   52  32  46 S7G22     29.96F
ST CHARLES     SUNNY     50  35  56 S13       29.97F

$$
MOZ072>076-082>087-097>100-106>115-282100-
...SOUTH CENTRAL AND SOUTHEAST MISSOURI...

CITY           SKY/WX    TMP DP  RH WIND       PRES   REMARKS
CAPE GIRARDEAU SUNNY     46  33  60 S18G28    30.14F
FARMINGTON     SUNNY     48  30  49 S16G22    30.03F
POPLAR BLUFF   SUNNY     49  31  49 S14G26    30.11F
WEST PLAINS    SUNNY     53  32  44 S14G20    30.03F

$$


USA.gov is the U.S. government's official web portal to all federal, state and local government web resources and services.